| time (UTC) | temp C | wind direction | speed KPH | gust KPH | rain 1hr cm | rain 24hr cm | rain mn cm | humidity % | barometer mb |
| 20260504010736 | 17 | 180 | 3.2 | 4.8 | 0.00 | 0.00 | 0.00 | 39 | 1004.1 |
| 20260504005715 | 17 | 158 | 1.6 | 1.6 | 0.00 | 0.00 | 0.00 | 41 | 1004.1 |
| 20260504004736 | 17 | 158 | 1.6 | 3.2 | 0.00 | 0.00 | 0.00 | 42 | 1003.9 |
| 20260504003716 | 17 | 0.0 | 3.2 | 0.00 | 0.00 | 0.00 | 44 | 1003.9 | |
| 20260504002715 | 18 | 225 | 1.6 | 3.2 | 0.00 | 0.00 | 0.00 | 45 | 1003.9 |
| 20260504001736 | 18 | 0.0 | 0.0 | 0.00 | 0.00 | 0.00 | 40 | 1003.8 | |
| 20260504000717 | 18 | 180 | 3.2 | 4.8 | 0.00 | 0.00 | 0.00 | 37 | 1003.8 |
| 20260503235739 | 19 | 0.0 | 1.6 | 0.00 | 0.00 | 0.00 | 41 | 1003.9 | |
| 20260503234716 | 19 | 248 | 1.6 | 1.6 | 0.00 | 0.00 | 0.00 | 39 | 1003.9 |
| 20260503233736 | 20 | 135 | 3.2 | 4.8 | 0.00 | 0.00 | 0.00 | 37 | 1004.0 |
| 20260503232716 | 20 | 203 | 1.6 | 1.6 | 0.00 | 0.00 | 0.00 | 33 | 1004.0 |
| 20260503231817 | 21 | 23 | 1.6 | 4.8 | 0.00 | 0.00 | 0.00 | 32 | 1003.9 |
| 20260503230738 | 21 | 270 | 3.2 | 8.0 | 0.00 | 0.00 | 0.00 | 33 | 1004.0 |
| 20260503225716 | 21 | 270 | 1.6 | 4.8 | 0.00 | 0.00 | 0.00 | 32 | 1004.0 |
| 20260503224716 | 21 | 135 | 4.8 | 9.7 | 0.00 | 0.00 | 0.00 | 35 | 1003.9 |
| 20260503223716 | 21 | 113 | 4.8 | 8.0 | 0.00 | 0.00 | 0.00 | 31 | 1003.9 |
| 20260503222718 | 21 | 203 | 1.6 | 4.8 | 0.00 | 0.00 | 0.00 | 31 | 1003.8 |
| 20260503221736 | 21 | 270 | 4.8 | 6.4 | 0.00 | 0.00 | 0.00 | 31 | 1003.7 |
| 20260503220716 | 21 | 135 | 4.8 | 11.3 | 0.00 | 0.00 | 0.00 | 31 | 1003.8 |
| 20260503215716 | 21 | 23 | 3.2 | 4.8 | 0.00 | 0.00 | 0.00 | 37 | 1003.9 |
| 20260503214717 | 21 | 270 | 4.8 | 6.4 | 0.00 | 0.00 | 0.00 | 34 | 1004.0 |
| 20260503213716 | 21 | 270 | 3.2 | 9.7 | 0.00 | 0.00 | 0.00 | 32 | 1004.0 |
| 20260503212738 | 21 | 45 | 4.8 | 9.7 | 0.00 | 0.00 | 0.00 | 32 | 1004.1 |
| 20260503211716 | 21 | 90 | 4.8 | 9.7 | 0.00 | 0.00 | 0.00 | 32 | 1004.2 |
| 20260503210716 | 21 | 315 | 4.8 | 6.4 | 0.00 | 0.00 | 0.00 | 30 | 1004.3 |
| 20260503205716 | 21 | 225 | 4.8 | 8.0 | 0.00 | 0.00 | 0.00 | 30 | 1004.1 |
| 20260503204716 | 22 | 68 | 4.8 | 12.9 | 0.00 | 0.00 | 0.00 | 29 | 1004.3 |
| 20260503203716 | 22 | 90 | 3.2 | 6.4 | 0.00 | 0.00 | 0.00 | 37 | 1004.4 |
| 20260503202716 | 21 | 270 | 11.3 | 17.7 | 0.00 | 0.00 | 0.00 | 35 | 1004.3 |
| 20260503201717 | 21 | 270 | 4.8 | 9.7 | 0.00 | 0.00 | 0.00 | 36 | 1004.3 |
| 20260503200716 | 21 | 23 | 4.8 | 11.3 | 0.00 | 0.00 | 0.00 | 37 | 1004.4 |
| 20260503195716 | 22 | 0 | 4.8 | 8.0 | 0.00 | 0.00 | 0.00 | 38 | 1004.4 |
| 20260503194716 | 21 | 180 | 4.8 | 11.3 | 0.00 | 0.00 | 0.00 | 37 | 1004.4 |
| 20260503193716 | 21 | 180 | 1.6 | 3.2 | 0.00 | 0.00 | 0.00 | 41 | 1004.4 |
| 20260503192716 | 21 | 315 | 4.8 | 8.0 | 0.00 | 0.00 | 0.00 | 37 | 1004.5 |
| 20260503191736 | 22 | 68 | 4.8 | 11.3 | 0.00 | 0.00 | 0.00 | 36 | 1004.6 |
| 20260503190717 | 21 | 180 | 4.8 | 9.7 | 0.00 | 0.00 | 0.00 | 37 | 1004.6 |
| 20260503185716 | 21 | 90 | 4.8 | 6.4 | 0.00 | 0.00 | 0.00 | 38 | 1004.7 |
| 20260503184717 | 21 | 90 | 4.8 | 8.0 | 0.00 | 0.00 | 0.00 | 37 | 1004.8 |
| 20260503183716 | 21 | 45 | 1.6 | 4.8 | 0.00 | 0.00 | 0.00 | 40 | 1004.7 |
| 20260503182716 | 20 | 0 | 3.2 | 9.7 | 0.00 | 0.00 | 0.00 | 43 | 1004.9 |
| 20260503181716 | 20 | 135 | 1.6 | 3.2 | 0.00 | 0.00 | 0.00 | 38 | 1005.0 |
| 20260503180716 | 20 | 113 | 4.8 | 8.0 | 0.00 | 0.00 | 0.00 | 41 | 1005.1 |
| 20260503175716 | 20 | 180 | 3.2 | 9.7 | 0.00 | 0.00 | 0.00 | 42 | 1005.2 |
| 20260503174716 | 20 | 338 | 3.2 | 4.8 | 0.00 | 0.00 | 0.00 | 44 | 1005.1 |
| 20260503173736 | 19 | 293 | 3.2 | 4.8 | 0.00 | 0.00 | 0.00 | 40 | 1005.3 |
| 20260503172716 | 18 | 203 | 4.8 | 6.4 | 0.00 | 0.00 | 0.00 | 41 | 1005.4 |
| 20260503171716 | 18 | 0 | 3.2 | 6.4 | 0.00 | 0.00 | 0.00 | 44 | 1005.4 |
| 20260503170737 | 18 | 45 | 1.6 | 3.2 | 0.00 | 0.00 | 0.00 | 43 | 1005.4 |
| 20260503150717 | 16 | 45 | 4.8 | 9.7 | 0.00 | 0.00 | 0.00 | 44 | 1005.9 |
| 20260503130717 | 13 | 0 | 3.2 | 4.8 | 0.00 | 0.00 | 0.00 | 58 | 1006.8 |
| 20260503110317 | 9 | 0.0 | 1.6 | 0.00 | 0.00 | 0.00 | 80 | 1006.5 | |
| 20260503090338 | 10 | 0.0 | 1.6 | 0.00 | 0.00 | 0.00 | 63 | 1008.7 | |
| 20260503081317 | 10 | 0.0 | 1.6 | 0.00 | 0.00 | 0.00 | 60 | 1009.2 | |
| 20260503080317 | 10 | 0.0 | 0.0 | 0.00 | 0.00 | 0.00 | 58 | 1009.3 | |
| 20260503072418 | 10 | 0.0 | 1.6 | 0.00 | 0.00 | 0.00 | 58 | 1009.5 | |
| 20260503071337 | 10 | 158 | 1.6 | 3.2 | 0.00 | 0.00 | 0.00 | 59 | 1009.8 |
| 20260503070318 | 10 | 0.0 | 1.6 | 0.00 | 0.00 | 0.00 | 58 | 1009.9 | |
| 20260503060337 | 10 | 0.0 | 1.6 | 0.00 | 0.00 | 0.00 | 60 | 1010.3 | |
| 20260503054317 | 10 | 0.0 | 1.6 | 0.00 | 0.00 | 0.00 | 61 | 1010.5 | |
| 20260503053317 | 10 | 0.0 | 0.0 | 0.00 | 0.00 | 0.00 | 59 | 1010.6 | |
| 20260503052318 | 10 | 0.0 | 1.6 | 0.00 | 0.00 | 0.00 | 59 | 1010.7 | |
| 20260503051338 | 10 | 0.0 | 0.0 | 0.00 | 0.00 | 0.00 | 59 | 1010.7 | |
| 20260503050316 | 10 | 0.0 | 0.0 | 0.00 | 0.00 | 0.00 | 58 | 1010.8 | |
| 20260503045317 | 10 | 0.0 | 1.6 | 0.00 | 0.00 | 0.00 | 59 | 1010.7 | |
| 20260503044317 | 10 | 0.0 | 0.0 | 0.00 | 0.00 | 0.00 | 60 | 1010.8 | |
| 20260503043317 | 11 | 0.0 | 0.0 | 0.00 | 0.00 | 0.00 | 58 | 1010.9 | |
| 20260503042318 | 11 | 0.0 | 0.0 | 0.00 | 0.00 | 0.00 | 56 | 1011.0 | |
| 20260503041316 | 11 | 0.0 | 1.6 | 0.00 | 0.00 | 0.00 | 55 | 1011.1 | |
| 20260503040337 | 11 | 203 | 1.6 | 1.6 | 0.00 | 0.00 | 0.00 | 54 | 1011.1 |
| 20260503035317 | 11 | 0.0 | 1.6 | 0.00 | 0.00 | 0.00 | 52 | 1011.2 | |
| 20260503034317 | 11 | 203 | 1.6 | 3.2 | 0.00 | 0.00 | 0.00 | 52 | 1011.3 |
| 20260503033338 | 12 | 0.0 | 1.6 | 0.00 | 0.00 | 0.00 | 54 | 1011.4 | |
| 20260503032337 | 12 | 203 | 1.6 | 1.6 | 0.00 | 0.00 | 0.00 | 53 | 1011.5 |
| 20260503031317 | 12 | 203 | 1.6 | 3.2 | 0.00 | 0.00 | 0.00 | 51 | 1011.6 |
| 20260503030336 | 12 | 0.0 | 1.6 | 0.00 | 0.00 | 0.00 | 52 | 1011.6 | |
| 20260503025316 | 12 | 0.0 | 0.0 | 0.00 | 0.00 | 0.00 | 52 | 1011.9 | |
| 20260503024316 | 12 | 203 | 1.6 | 3.2 | 0.00 | 0.00 | 0.00 | 52 | 1011.9 |
| 20260503023316 | 12 | 203 | 1.6 | 1.6 | 0.00 | 0.00 | 0.00 | 51 | 1012.0 |
| 20260503022317 | 12 | 203 | 1.6 | 1.6 | 0.00 | 0.00 | 0.00 | 50 | 1011.9 |
| 20260503021318 | 12 | 203 | 1.6 | 1.6 | 0.00 | 0.00 | 0.00 | 50 | 1012.0 |
| 20260503020316 | 12 | 0.0 | 1.6 | 0.00 | 0.00 | 0.00 | 49 | 1012.0 | |
| 20260503015316 | 12 | 0.0 | 1.6 | 0.00 | 0.00 | 0.00 | 51 | 1011.9 | |
| 20260503014316 | 12 | 203 | 1.6 | 1.6 | 0.00 | 0.00 | 0.00 | 50 | 1011.9 |
| 20260503013317 | 13 | 203 | 1.6 | 3.2 | 0.00 | 0.00 | 0.00 | 50 | 1011.9 |
| 20260503012317 | 12 | 180 | 1.6 | 3.2 | 0.00 | 0.00 | 0.00 | 48 | 1011.9 |
| 20260503011316 | 13 | 180 | 1.6 | 3.2 | 0.00 | 0.00 | 0.00 | 48 | 1012.0 |